Other Public Products
Issued by NWS Grand Forks, ND

Home | Current Version | Previous Version | Graphics & Text | Print | Product List | Glossary On
Versions: 1 2 3 4 5 6 7 8 9 10 11 12 13 14 15 16 17 18 19 20 21 22 23 24 25 26 27 28 29 30 31 32 33 34 35 36 37 38 39 40 41 42 43 44 45 46 47 48 49 50
000
FPUS83 KFGF 232010
OPUFGF
PRAIRIE TO PINES WEATHER ROUNDUP
NATIONAL WEATHER SERVICE EASTERN NORTH DAKOTA/GRAND FORKS ND
300 PM CDT WED APR 23 2014

 **SATELLITE DATA USED TO AUGMENT SKY COVER AT AUTOMATED STATIONS**
 *****  WEATHER ACROSS EASTERN NORTH DAKOTA  *****

CITY           SKY/WX    TMP DP  RH WIND       PRES   REMARKS
GRAND FORKS    LGT RAIN  45  42  89 SE14      29.86F FOG
GRAND FORKS AF LGT RAIN  45  43  93 SE20G28   29.85F
GRAND CITY NWS   N/A     43 N/A N/A E16         N/A
BUXTON         NOT AVBL
DEVILS LAKE    CLOUDY    43  36  75 SE26G32   29.75R
FARGO          CLOUDY    44  39  82 SE23      29.84F
WAHPETON ARPT  CLOUDY    43  36  75 SE23G35   29.80F
$$

 *****  WEATHER ACROSS CENTRAL AND WESTERN NORTH DAKOTA  *****

CITY           SKY/WX    TMP DP  RH WIND       PRES   REMARKS
JAMESTOWN      LGT RAIN  44  40  85 SE28G37   29.70R
BISMARCK       CLOUDY    57  40  52 SE14      29.55S
MINOT          LGT RAIN  49  42  77 E21G32    29.55F
MINOT AFB      CLOUDY    49  45  87 SE30G40   29.55F
GARRISON         N/A     50  45  83 SE16      29.53R
WILLISTON      LGT RAIN  49  43  80 W17G25    29.48R
DICKINSON      PTSUNNY   55  38  52 W32G41    29.51R
HETTINGER      CLOUDY    49  39  68 W30G41    29.57R
$$

 *****  OTHER OBSERVATIONS NORTHEAST NORTH DAKOTA  *****

CITY           SKY/WX    TMP DP  RH WIND       PRES   REMARKS
WALHALLA         N/A     43  43 100 SE22G30   29.85F FOG
LANGDON        CLOUDY    41  39  93 SE28      29.79S
CAVALIER       CLOUDY    45  39  81 SE14G23   29.86F FOG
GRAFTON        LGT RAIN  43  41  93 SE18      29.87F
CANDO          MIX PCPN  43  41  93 SE31G37   29.73S
FORT TOTTEN      N/A     43  39  86 SE18      29.95S
ROLLA          LGT RAIN  41  41 100 SE24G37   29.73F
RUGBY          CLOUDY    45  43  93 SE25G32   29.66S
 ***** THE ABOVE OBSERVATIONS ARE NON NWS ARE NOT QUALITY
        CONTROLLED AND MAY MIS-REPORT RAIN FOR SNOW...
$$

 *****  OTHER OBSERVATIONS SOUTHEAST NORTH DAKOTA *****

CITY           SKY/WX    TMP DP  RH WIND       PRES   REMARKS
COOPERSTOWN    CLOUDY    41  41 100 SE29G41   29.76F
VALLEY CITY    MOCLDY    41  41 100 SE20G28   29.77R FOG
OAKES          CLOUDY    46  41  81 SE24G35   29.71F
GWINNER        CLOUDY    45  41  87 SE24G32   29.76F
SHEYENNE NWR     N/A     42  40  94 SE21      29.95S
BUFFALO        NOT AVBL
WYNDMERE       NOT AVBL
 ***** THE ABOVE OBSERVATIONS ARE NON NWS ARE NOT QUALITY
       CONTROLLED AND MAY MIS-REPORT RAIN FOR SNOW...
$$

  *****  WEATHER ACROSS NORTHERN MINNESOTA  *****

CITY           SKY/WX    TMP DP  RH WIND       PRES   REMARKS
FLAG ISLAND    CLOUDY    52  21  30 E12G17    29.95F
WARROAD        PTSUNNY   55  28  35 E15       29.93F
ROSEAU         CLOUDY    57  25  28 SE20G25   29.92S
HALLOCK        DRIZZLE   48  41  76 S15       29.87F
THF RVR FALLS  CLOUDY    45  36  70 E16       29.89F
HALSTAD          N/A     42  39  88 SE22        N/A
FOSSTON        RAIN      45  36  70 SE13      29.90S
BAUDETTE       CLOUDY    56  24  29 SE12G21   29.95F
WASKISH        CLOUDY    55  25  30 SE16G22   29.95F
CROOKSTON      RAIN      45  43  93 SE12      29.89F
$$
  *****  WEATHER ACROSS CENTRAL AND WEST MINNESOTA  *****

CITY           SKY/WX    TMP DP  RH WIND       PRES   REMARKS
BEMIDJI        CLOUDY    49  24  38 SE21G29   29.93F
PARK RAPIDS    LGT RAIN  42  37  82 S16       29.94S
WADENA         RAIN      37  36  93 SE16G25   29.93S
DETROIT LAKES  RAIN      37  37 100 SE22G28   29.89F
MOORHEAD       CLOUDY    45  43  93 SE23      29.85F
FERGUS FALLS   LGT RAIN  41  39  93 SE25G35   29.82F
ELBOW LAKE     CLOUDY    41  38  89 SE22G29   29.84F
MORRIS MN      CLOUDY    43  37  81 SE26G36   29.84F
STAPLES        LGT RAIN  37  36  93 SE12G18   29.96F
WHEATON        CLOUDY    45  39  81 SE37      29.80F
$$
  *****  WEATHER ELSEWHERE ACROSS MINNESOTA  *****

CITY           SKY/WX    TMP DP  RH WIND       PRES   REMARKS
DULUTH         PTSUNNY   48  26  42 E13       30.05F
INTRNTL FALLS  CLOUDY    55  22  27 S12G18    30.00F
ELY            CLOUDY    52  19  28 SE12      30.05F
CLOQUET        CLOUDY    50  23  34 E9        30.04F
BRAINERD       LGT RAIN  50  29  44 SE15G24   30.00S
HIBBING        CLOUDY    55  22  27 SE10G18   30.02F
ALEXANDRIA     CLOUDY    40  37  89 SE20G29   29.91F
SAINT CLOUD    LGT RAIN  42  37  82 SE13      30.01S
MINNEAPOLIS    LGT RAIN  41  38  89 E17       30.04F
$$

  *****  WEATHER ACROSS SOUTH DAKOTA  *****

CITY           SKY/WX    TMP DP  RH WIND       PRES   REMARKS
SIOUX FALLS    PTSUNNY   62  41  46 S26G40    29.68F
BROOKINGS      NOT AVBL
WATERTOWN      PTSUNNY   53  37  54 SE23G35   29.71S
HURON          MOSUNNY   69  40  34 SE24G38   29.58F
SISSETON         N/A     43  39  86 S24G39    29.76R
ABERDEEN       LGT RAIN  55  37  50 SE23G36   29.64S
MITCHELL       PTSUNNY   69  42  37 S29G39    29.58F
PIERRE         CLOUDY    68  44  42 E10       29.49R
MOBRIDGE       CLOUDY    56  47  71 E21G28    29.47F
RAPID CITY     PTSUNNY   61  41  47 N35G44    29.57R
$$

  *****  SOME WEATHER IN NEARBY STATES *****

CITY           SKY/WX    TMP DP  RH WIND       PRES   REMARKS
GLASGOW MT     CLOUDY    56  28  34 W24G33    29.54R
GREAT FALLS MT MOSUNNY   52  23  32 SW30G39   29.66S
CHEYENNE WY    MOSUNNY   57  25  29 W25G41    29.68S
SCOTTSBLUFF NE SUNNY     67  21  17 W29G43    29.66S
OMAHA NE       CLOUDY    58  44  60 SE17      29.72R
DES MOINES IA  LGT RAIN  47  40  76 SE22G31   29.93F
DAVENPORT IA   PTSUNNY   55  28  35 E14       30.10S
CHICAGO IL     PTSUNNY   51  25  36 NE9       30.14F
EAU CLAIRE WI  CLOUDY    52  24  33 SE10      30.07F
LA CROSSE WI   LGT RAIN  52  26  36 SE10      30.09S
$$

  *****  SOME NATIONAL WEATHER *****

CITY           SKY/WX    TMP DP  RH WIND       PRES   REMARKS
LA GUARDIA NY  PTSUNNY   58  33  39 NW20G32   29.59S
RALEIGH NC     SUNNY     70  27  20 NW10G17   29.84F
ATLANTA GA     SUNNY     75  35  23 NW10G20   29.92F
NEW ORLEANS LA MOSUNNY   83  56  39 NE7       29.93F
OKLAHOMA CITY  PTSUNNY   86  53  32 S22G33    29.78F
ALBUQUERQUE NM MOSUNNY   74  12   9 SW22G30   29.80F
SALT LAKE CITY MOSUNNY   48  23  37 VRB6      30.05S
LOS ANGELES CA PTSUNNY   66  53  63 W14G23    29.97S
BOISE ID       CLOUDY    51  32  48 S10       30.02F
SEATTLE WA     PTSUNNY   51  41  68 SW9       29.91S
$$

*** WEATHER ACROSS MANITOBA...SASKATCHEWAN AND ONTARIO ***
                ***ONTARIO***

CITY           SKY/WX    TMP DP  RH WIND       PRES   REMARKS
GERALDTON      MOSUNNY   48  25  40 W6        30.08F
THUNDER BAY    PTSUNNY   54  19  26 S10       30.11F
SIOUX LOOKOUT  CLOUDY    54  21  28 S6        30.04F
TORONTO        SUNNY     48  19  32 N18G32    29.97R
BIG TROUT LK   PTSUNNY   45  19  36 S5        30.11S
PICKLE LAKE    PTSUNNY   52  21  30 VRB2      30.06F
DRYDEN         SUNNY     52  21  30 S13       30.02F
KENORA         CLOUDY    52  21  30 SE12      30.00F
$$
                *** MANITOBA***

CITY           SKY/WX    TMP DP  RH WIND       PRES   REMARKS
BRANDON        LGT RAIN  45  43  93 SE14G22   29.77S
DAUPHIN        LGT RAIN  45  36  70 SE18G24   29.83R
ISLAND LAKE    MOSUNNY   54  46  76 CALM      30.05S
PILOT MOUND      N/A     43  41  93 SE23G32     N/A
THE PAS        CLOUDY    50  30  46 E15G21    29.94F
THOMPSON       MOSUNNY   37  27  65 NE16      30.14F
WINNIPEG       CLOUDY    59  27  29 SE21      29.88F
LYNN LAKE      SUNNY     36  23  60 NE18      30.14F
GILLAM         PTSUNNY   32  25  74 NE15      30.25R WCI  22
$$
                ***SASKATCHEWAN***

CITY           SKY/WX    TMP DP  RH WIND       PRES   REMARKS
ESTEVAN        LGT RAIN  46  45  93 SE22G29   29.51S FOG
KINDERSLEY     LGT RAIN  46  45  93 W16G22    29.39R
LLOYDMINSTER   LGT RAIN  37  36  93 E28G36    29.46F FOG
PRINCE ALBERT  CLOUDY    52  32  46 E26       29.63F
REGINA         LGT RAIN  45  43  93 SE24G30   29.50S FOG
YORKTON        LGT RAIN  46  39  76 E26G36    29.66F



USA.gov is the U.S. government's official web portal to all federal, state and local government web resources and services.